Elkins, WV

9:55 AM EST on February 12, 2016 (GMT -0500)
Elkins-Randolph County

Weather History for KEKN - July, 2013

Change the Weather History Date:

Sunday, July 21, 2013

  Actual Average Record
Temperature  
Mean Temperature 72 °F 70 °F  
Max Temperature 82 °F 81 °F 95 °F (1934)
Min Temperature 62 °F 59 °F 41 °F (1929)
Degree Days  
Heating Degree Days 0 0  
Month to date heating degree days 0 8  
Since 1 June heating degree days 12 63  
Since 1 July heating degree days 0 8  
Cooling Degree Days 7 5  
Month to date cooling degree days 185 107  
Year to date cooling degree days 307 222  
Since 1 June cooling degree days 282 199  
Growing Degree Days 22 (Base 50)    
Moisture  
Dew Point 64 °F    
Average Humidity 77    
Maximum Humidity 100    
Minimum Humidity 54    
Precipitation  
Precipitation 0.10 in 0.17 in 1.96 in (1925)
Month to date precipitation 2.44 3.72  
Year to date precipitation 23.00 27.33  
Snow  
Snow 0.00 in - - ()
Month to date snowfall 0.0  
Since 1 September snowfall 77.5  
Snow Depth 0.00 in    
Sea Level Pressure  
Sea Level Pressure 30.01 in    
Wind  
Wind Speed 1 mph (South)    
Max Wind Speed 13 mph    
Max Gust Speed 17 mph    
Visibility 10 miles    
Events Rain    
T = Trace of Precipitation, MM = Missing Value Source: NWS Daily Summary

Daily Weather History Graph

Daily Weather History Graph

Search for Another Location

Airport or City:

Trip Planner

Search our weather history database for the weather conditions in past years. The results will help you decide how hot, cold, wet, or windy it might be!

Date:

Astronomy

Jul. 21, 2013 Rise Set
Actual Time 6:11 AM EDT 8:40 PM EDT
Civil Twilight 5:40 AM EDT 9:10 PM EDT
Nautical Twilight 5:02 AM EDT 9:48 PM EDT
Astronomical Twilight 4:20 AM EDT 10:30 PM EDT
Moon 7:37 PM EDT (7/21) 4:55 AM EDT (7/21)
Length of Visible Light 15h 29m
Length of Day
14h 28m
Waxing Gibbous, 98% of the Moon is Illuminated
Jul 21
Waxing Gibbous
Jul 22
Full
Jul 29
Last Quarter
Aug 6
New
Aug 14
First Quarter

Hourly Weather History & Observations

Time (EDT) Temp. Heat Index Dew Point Humidity Pressure Visibility Wind Dir Wind Speed Gust Speed Precip Events Conditions
12:51 AM 63.0 °F - 61.0 °F 93% 29.99 in 10.0 mi Calm Calm - N/A   Partly Cloudy
1:05 AM 62.6 °F - 60.8 °F 94% 30.03 in 10.0 mi Calm Calm - N/A   Mostly Cloudy
1:28 AM 62.6 °F - 60.8 °F 94% 30.02 in 10.0 mi Calm Calm - N/A   Scattered Clouds
1:51 AM 64.0 °F - 62.1 °F 93% 29.99 in 10.0 mi Calm Calm - N/A   Scattered Clouds
1:58 AM 64.4 °F - 62.6 °F 94% 30.03 in 6.0 mi Calm Calm - N/A   Mostly Cloudy
2:09 AM 64.4 °F - 62.6 °F 94% 30.03 in 2.0 mi SSE 3.5 mph - N/A   Overcast
2:19 AM 64.4 °F - 62.6 °F 94% 30.03 in 8.0 mi Calm Calm - N/A   Overcast
2:27 AM 64.4 °F - 62.6 °F 94% 30.03 in 10.0 mi Calm Calm - N/A   Overcast
2:51 AM 64.9 °F - 62.1 °F 90% 29.99 in 10.0 mi Calm Calm - N/A   Overcast
3:51 AM 64.9 °F - 62.1 °F 90% 29.99 in 10.0 mi Calm Calm - N/A   Overcast
4:51 AM 63.0 °F - 62.1 °F 97% 29.99 in 10.0 mi Calm Calm - N/A   Mostly Cloudy
5:51 AM 63.0 °F - 61.0 °F 93% 30.01 in 10.0 mi Calm Calm - N/A   Partly Cloudy
6:51 AM 64.0 °F - 62.1 °F 93% 30.02 in 10.0 mi Calm Calm - N/A   Overcast
7:51 AM 66.9 °F - 64.0 °F 90% 30.01 in 10.0 mi Calm Calm - N/A   Mostly Cloudy
8:03 AM 66.2 °F - 64.4 °F 94% 30.04 in 10.0 mi Calm Calm - N/A   Mostly Cloudy
8:51 AM 72.0 °F - 64.9 °F 78% 30.01 in 10.0 mi Calm Calm - N/A   Clear
9:51 AM 75.9 °F - 66.0 °F 71% 30.01 in 10.0 mi Calm Calm - N/A   Mostly Cloudy
10:51 AM 77.0 °F - 66.0 °F 69% 30.00 in 10.0 mi Calm Calm - N/A   Mostly Cloudy
11:49 AM 71.6 °F - 68.0 °F 88% 30.06 in 10.0 mi South 3.5 mph - 0.01 in Rain Rain
11:51 AM 72.0 °F - 68.0 °F 87% 30.03 in 10.0 mi South 3.5 mph - 0.02 in Rain Rain
12:22 PM 71.6 °F - 68.0 °F 88% 30.07 in 10.0 mi South 5.8 mph - 0.07 in Rain Rain
12:51 PM 70.0 °F - 66.9 °F 90% 30.05 in 10.0 mi South 10.4 mph 17.3 mph 0.08 in Rain Light Rain
1:51 PM 71.1 °F - 64.9 °F 81% 30.04 in 10.0 mi South 8.1 mph - 0.00 in   Scattered Clouds
2:51 PM 73.0 °F - 64.9 °F 76% 30.01 in 10.0 mi Calm Calm - N/A   Clear
3:51 PM 79.0 °F - 66.9 °F 66% 29.99 in 10.0 mi Calm Calm - N/A   Clear
4:51 PM 79.0 °F - 66.0 °F 64% 29.98 in 10.0 mi Calm Calm - N/A   Clear
5:51 PM 80.1 °F 81.5 °F 63.0 °F 56% 29.98 in 10.0 mi Calm Calm - N/A   Clear
6:51 PM 77.0 °F - 66.0 °F 69% 29.97 in 10.0 mi NW 3.5 mph - N/A   Clear
7:51 PM 75.9 °F - 66.9 °F 74% 29.97 in 10.0 mi Calm Calm - N/A   Clear
8:51 PM 72.0 °F - 68.0 °F 87% 29.98 in 10.0 mi Calm Calm - N/A   Clear
9:51 PM 71.1 °F - 66.9 °F 87% 29.98 in 10.0 mi Calm Calm - N/A   Clear
10:51 PM 69.1 °F - 66.0 °F 90% 29.99 in 10.0 mi Calm Calm - N/A   Clear
11:51 PM 68.0 °F - 64.9 °F 90% 30.01 in 10.0 mi Calm Calm - N/A   Scattered Clouds